EHI
0 0 0 0 0 0 0 0 0 0 0 0 0 0 1 1 2 2 2 1 1 2 1 0 1 6 11 15 24 41 59 67 67 64 56 44 29 14 5 1 0 0 0 0 0 0 0 0 0
0 0 0 0 0 0 0 0 0 0 0 0 0 0 1 2 3 2 1 1 2 2 1 1 2 4 7 13 23 36 49 55 57 53 44 31 17 8 3 1 0 0 0 0 0 0 0 0 0
0 0 0 0 0 0 0 0 0 0 0 0 0 1 3 4 2 1 0 1 2 3 3 4 3 3 5 8 14 21 29 34 35 31 23 13 6 2 1 0 0 0 0 0 0 0 0 0 0
0 0 0 0 0 0 0 0 0 0 0 0 0 3 7 8 4 1 0 1 2 3 4 6 6 4 4 4 5 7 11 14 14 11 7 3 1 0 0 0 0 0 0 0 0 0 0 0 0
0 0 0 0 0 0 1 2 2 1 0 0 1 5 11 12 9 5 2 0 1 2 3 6 7 6 6 6 5 5 5 5 4 3 1 0 0 0 0 0 0 0 0 0 0 0 0 0 0
0 0 0 0 0 1 4 7 7 4 3 2 2 7 13 15 13 9 4 1 1 1 2 5 7 7 9 10 10 8 6 4 3 2 1 0 0 0 0 0 0 0 0 0 0 0 0 0 0
0 0 0 0 0 1 5 13 16 13 10 6 2 7 17 23 21 13 7 5 3 1 1 2 4 5 7 10 11 10 8 5 3 2 1 0 0 0 0 0 0 0 0 0 0 0 0 0 0
0 0 0 0 0 0 3 11 19 20 17 11 7 14 30 40 35 24 16 12 7 3 0 1 2 2 2 4 8 9 7 5 4 2 1 0 0 0 1 2 2 1 1 1 0 0 0 0 0
0 0 0 0 0 1 2 6 12 16 19 24 30 42 57 61 51 37 26 18 10 4 2 2 2 1 0 2 4 6 6 6 5 2 1 0 1 2 4 5 6 4 2 2 1 0 0 0 0
0 0 0 0 1 2 2 3 4 8 19 38 60 75 80 75 58 40 27 18 10 6 4 3 4 3 2 3 5 5 6 5 4 3 3 3 5 6 7 9 10 7 3 2 3 3 2 2 2
0 0 0 0 2 3 3 4 6 13 29 51 70 81 82 76 59 40 27 18 13 10 6 5 6 7 7 8 7 6 6 5 3 3 5 8 10 10 11 13 14 11 7 7 9 9 7 6 7
0 0 0 0 1 2 3 6 13 27 45 60 68 72 75 74 61 44 32 25 20 17 12 8 9 12 13 11 8 6 6 4 2 3 5 9 11 12 15 19 20 17 15 15 16 14 11 10 10
0 0 0 0 1 1 1 6 19 36 52 65 71 71 72 69 58 44 36 31 27 24 18 11 11 14 14 11 7 4 4 3 2 3 5 7 9 10 14 19 19 18 21 20 16 13 12 11 11
0 0 0 0 1 0 1 5 18 34 47 60 69 71 68 61 49 38 33 30 28 25 18 11 10 11 11 8 4 2 2 1 1 2 3 5 6 7 9 12 13 13 16 16 12 10 9 9 8
0 0 0 0 0 0 1 6 18 30 39 50 60 61 57 50 41 33 27 24 23 20 14 10 7 6 6 5 2 1 0 0 0 1 1 2 3 4 4 5 7 6 7 8 7 5 5 5 4
0 0 0 0 0 0 0 6 18 26 33 41 47 45 42 39 32 24 18 15 15 13 11 8 5 3 2 2 1 0 0 0 0 0 0 0 1 1 1 2 2 2 1 3 2 2 2 2 2
0 0 0 0 0 0 0 5 15 22 27 34 34 30 28 26 21 13 8 7 8 7 6 5 3 1 0 0 0 0 0 0 0 0 0 0 0 0 0 0 0 0 1 1 1 0 1 1 1
0 0 0 0 0 0 0 5 12 18 21 23 21 18 16 14 12 7 3 3 3 3 3 3 2 1 0 0 0 0 0 0 0 0 0 0 0 0 0 0 0 0 0 0 0 0 0 0 0
0 0 0 0 0 0 0 3 9 14 16 14 11 8 7 7 7 5 2 1 1 1 1 1 1 1 1 0 0 0 0 0 0 0 0 0 0 0 0 0 0 0 0 0 0 0 0 0 0
0 0 0 0 0 0 0 3 6 10 11 8 5 3 2 3 4 3 1 0 0 0 0 1 2 3 3 1 1 0 0 0 0 0 0 0 0 0 0 0 0 0 0 0 0 0 0 0 0
0 0 0 0 0 0 0 1 4 6 6 5 3 2 1 1 1 1 0 0 0 0 1 3 7 8 7 5 2 1 0 0 0 0 0 0 0 0 0 0 0 0 0 0 0 0 0 0 0
0 0 0 0 0 0 0 0 2 3 4 4 4 3 2 1 0 0 0 0 0 0 2 7 12 16 14 10 4 1 0 0 0 0 0 0 0 0 0 0 0 0 0 0 0 0 0 0 0
0 0 0 0 0 0 0 0 0 1 3 4 4 3 2 1 0 0 0 1 1 1 3 9 18 23 20 12 6 2 1 0 0 0 0 0 0 0 0 0 0 0 0 0 0 0 0 0 0
0 0 0 0 0 0 0 0 0 0 1 2 3 2 2 1 0 0 1 2 2 2 4 8 15 20 17 10 4 2 1 0 0 0 0 0 0 0 0 0 0 0 0 0 0 0 0 0 0
0 0 0 0 0 0 0 0 0 0 0 0 1 1 2 2 1 0 1 2 2 2 3 4 7 9 8 4 2 1 0 0 0 0 0 0 0 0 0 0 0 0 0 0 0 0 0 0 0
0 0 0 0 0 0 0 0 0 0 0 0 0 0 1 1 0 0 0 1 1 1 1 1 1 2 2 1 0 0 0 0 0 0 0 0 0 0 0 0 0 0 0 0 0 0 0 0 0
0 0 0 0 0 0 0 0 0 0 0 0 0 0 0 0 0 0 0 0 0 0 0 0 1 1 1 0 0 0 0 0 0 0 0 0 0 0 0 0 0 0 0 0 0 0 0 0 0
0 0 0 0 0 0 0 0 0 0 0 0 0 0 0 0 0 0 0 0 0 0 0 0 0 0 0 0 0 0 0 0 0 0 0 0 0 0 0 0 0 0 0 0 0 0 0 0 0
0 0 0 0 0 0 0 0 0 0 0 0 0 0 0 0 0 0 0 0 0 0 0 0 0 0 0 0 0 0 0 0 0 0 0 0 0 0 0 0 0 0 0 0 0 0 0 0 0
0 0 0 0 0 0 0 0 0 0 0 0 0 0 0 0 0 0 0 0 0 0 0 0 0 0 0 0 0 0 0 0 0 0 0 0 0 0 0 0 0 0 0 0 0 0 0 0 0
Wind_Speed
15 13 8 5 7 7 3 6 4 4 5 8 8 6 8 10 8 9 8 11 14 15 16 15 12 11 11 10 10 11 11 11 11 11 10 10 9 8 8 7 6 5 5 4 4 4 4 4 5
12 10 7 7 8 2 5 6 7 7 5 5 7 7 10 11 9 9 8 12 16 16 15 14 14 12 11 10 10 10 10 11 10 10 10 9 8 7 6 6 5 4 4 4 3 3 4 4 4
11 8 7 6 5 3 4 6 6 4 4 3 5 7 8 8 6 6 9 15 15 14 13 15 14 13 11 10 10 10 10 10 10 9 8 7 7 6 5 5 5 5 4 4 4 3 3 4 4
7 7 7 8 4 3 4 5 3 3 7 5 7 9 9 8 5 8 13 15 15 14 14 16 13 13 12 11 10 9 9 9 9 8 7 6 6 5 5 5 5 5 5 5 5 4 4 4 4
7 6 9 8 1 2 3 4 1 3 5 6 7 10 9 6 9 11 12 13 14 13 13 16 13 12 12 11 10 9 9 8 8 7 7 6 5 5 5 5 5 5 5 5 5 5 5 5 5
6 6 10 7 2 2 3 3 4 6 9 8 9 11 8 6 9 9 10 11 13 12 12 14 12 11 11 10 9 9 8 8 7 6 6 6 6 6 6 6 6 6 6 6 6 5 6 6 6
7 7 9 5 1 3 4 5 5 6 9 7 5 9 9 8 9 9 9 9 10 10 10 10 12 11 10 7 7 6 6 5 5 4 4 5 6 6 6 6 6 6 6 7 6 7 6 7 7
6 7 9 6 4 3 4 5 5 4 7 6 3 7 10 11 10 10 10 9 8 8 8 8 7 7 8 8 7 4 3 2 2 2 4 4 6 7 7 8 8 7 7 7 8 8 8 8 8
6 9 8 3 2 1 3 3 4 3 7 6 6 7 14 16 13 12 11 10 9 7 5 5 6 5 4 4 6 5 4 3 3 5 5 6 7 7 7 7 2 5 7 8 8 9 9 8 10
7 8 3 3 4 3 2 1 3 6 8 9 11 13 16 14 13 13 12 12 10 8 6 4 3 3 2 2 3 1 1 2 2 3 3 3 4 4 5 1 3 6 8 8 9 8 9 10 8
6 6 4 4 5 5 3 2 2 5 6 6 12 14 13 13 12 11 11 10 9 8 6 5 4 3 2 2 2 2 1 1 1 2 4 4 4 4 4 2 4 6 7 7 6 8 7 7 6
6 4 6 6 5 4 3 2 3 3 7 7 10 13 12 11 10 10 10 9 8 7 6 5 5 4 3 3 2 1 1 1 2 2 4 3 3 3 3 2 3 4 3 4 5 4 6 7 7
8 4 3 2 0 1 3 4 5 8 7 8 10 10 10 10 9 8 8 8 8 8 7 6 5 5 4 4 2 2 2 2 2 3 3 4 4 4 3 2 2 4 3 4 4 5 5 6 8
2 1 1 1 2 3 5 6 5 6 6 8 9 9 9 8 9 9 9 8 8 7 7 6 6 5 5 4 3 3 2 2 3 3 5 5 5 4 3 3 3 3 3 3 3 4 5 6 6
3 4 5 3 3 4 5 6 5 6 6 7 8 8 8 8 8 8 8 8 8 8 7 7 7 6 5 5 4 3 3 4 4 4 4 5 6 4 4 3 3 2 3 3 4 4 5 6 6
7 8 6 6 2 3 8 3 8 6 6 7 7 7 7 7 7 7 7 7 7 7 7 6 6 7 6 5 3 3 4 4 4 4 4 5 6 5 5 4 3 2 4 4 3 5 5 5 6
8 6 1 5 2 2 5 1 8 5 6 6 6 6 7 7 7 7 7 7 7 7 7 6 6 5 4 4 2 3 2 3 3 4 4 5 6 6 6 4 3 4 5 5 5 4 5 6 6
4 4 2 1 3 3 4 2 6 6 5 5 5 6 7 7 8 8 8 7 6 6 6 5 5 4 3 3 2 0 1 2 3 4 4 6 5 6 7 5 3 6 5 5 4 5 5 6 7
7 6 3 2 2 3 3 3 5 6 6 5 5 5 6 6 8 8 8 7 8 7 6 6 5 5 3 2 2 2 2 3 3 3 4 5 5 6 5 7 4 5 6 6 7 6 7 7 5
6 6 2 4 3 2 3 3 4 6 6 6 6 7 8 8 9 9 8 9 9 8 8 7 7 7 6 2 1 1 3 3 3 4 3 4 5 6 5 5 7 5 5 6 6 6 7 6 5
4 5 2 2 5 4 4 6 6 6 6 6 6 7 8 9 10 10 10 10 10 10 10 8 8 7 6 4 3 2 3 4 3 3 3 4 5 5 5 6 7 6 7 5 5 6 7 7 6
2 2 1 4 7 3 4 1 6 7 9 9 10 10 10 10 10 11 11 11 11 11 10 10 9 8 6 6 5 5 5 6 5 4 4 5 5 5 5 5 5 6 7 5 7 5 6 7 7
3 1 3 5 5 3 1 2 7 7 9 11 12 12 12 12 12 12 12 11 11 10 9 8 8 7 7 6 5 5 6 5 4 4 4 6 4 4 5 5 5 5 6 5 7 6 7 7 8
6 5 5 7 7 1 2 3 5 6 6 9 11 11 12 12 12 12 11 10 9 8 8 7 7 7 7 7 6 6 6 6 7 6 6 5 4 3 3 4 4 5 5 5 6 6 8 7 8
6 6 5 4 2 3 2 4 4 6 6 7 9 10 11 11 11 11 11 10 9 8 8 7 7 7 7 7 6 6 6 7 7 8 5 5 5 4 2 4 5 5 5 6 6 7 7 8 8
3 6 6 7 5 3 4 2 5 7 7 7 7 8 9 10 10 9 9 8 8 7 7 7 7 7 7 7 6 6 7 7 6 5 6 6 6 5 5 6 6 6 7 7 6 7 7 6 7
3 3 5 5 3 3 2 1 4 8 9 10 9 9 9 8 8 8 7 7 7 7 7 7 7 7 7 7 6 6 7 7 7 7 8 7 5 6 6 7 7 8 8 8 8 8 7 7 8
5 1 3 5 5 4 1 1 1 6 9 11 10 10 9 8 8 8 8 8 7 7 7 7 7 7 7 7 7 6 7 7 7 8 8 8 8 7 8 9 9 9 9 9 9 9 8 8 8
5 4 4 5 5 7 5 3 5 2 5 8 10 10 9 9 9 9 8 7 7 7 7 7 7 7 7 7 7 7 8 8 8 8 9 8 8 8 9 9 9 10 10 9 9 10 10 10 10
5 3 4 6 5 5 7 3 7 3 4 6 7 8 8 8 8 9 8 8 8 8 8 7 7 7 7 7 7 8 8 8 9 9 9 9 9 9 9 9 10 11 10 10 10 11 11 11 11
Wind_Direction
171 181 201 221 237 228 72 57 27 23 51 52 47 46 54 40 20 70 103 133 136 138 135 142 140 138 131 123 116 114 114 116 119 123 128 130 131 134 137 141 146 150 148 138 127 114 106 103 105
173 179 210 235 258 222 89 45 33 45 83 90 76 75 77 69 58 89 125 135 144 140 141 142 136 138 135 129 123 118 116 115 116 118 122 126 129 133 141 149 157 163 162 156 152 137 124 117 116
170 206 245 248 263 338 34 31 33 66 107 118 93 63 58 58 74 99 130 146 146 137 136 130 143 142 139 136 132 128 125 123 123 124 126 131 136 145 156 166 177 183 184 182 178 168 153 142 138
186 215 234 251 264 35 357 357 359 134 116 103 113 93 80 33 32 106 136 149 143 141 144 134 148 145 145 143 141 139 137 135 135 136 140 146 155 167 178 188 198 202 201 199 194 190 183 171 163
232 247 243 238 240 52 20 1 312 161 116 112 114 103 85 55 80 115 141 148 148 148 141 137 148 149 150 151 151 149 148 148 149 153 159 167 179 192 201 209 217 222 219 214 208 204 200 194 186
231 247 252 242 132 80 69 52 93 109 112 110 113 111 89 98 106 122 139 152 149 145 140 132 143 150 154 156 155 154 155 158 163 170 177 189 202 213 222 226 234 237 230 223 218 213 209 205 201
264 260 264 268 219 120 70 56 78 117 115 97 111 113 116 117 116 125 136 146 145 144 138 146 156 157 158 156 154 156 158 164 174 187 200 215 224 231 237 237 243 243 240 237 231 225 221 215 209
278 267 247 232 227 128 85 76 59 64 96 94 117 132 139 134 131 130 134 137 137 142 143 148 159 148 163 160 150 151 150 164 192 222 237 247 244 238 236 238 227 240 248 248 246 239 231 224 216
257 253 246 232 242 111 63 83 82 92 112 95 63 78 114 130 136 138 140 141 144 144 139 142 138 140 159 157 135 163 159 155 226 219 222 246 252 244 222 236 224 253 257 257 255 251 242 231 220
243 255 273 346 314 323 1 24 125 155 132 111 98 98 119 137 146 151 150 151 152 147 138 123 123 130 138 108 107 102 97 85 307 328 296 270 277 282 282 66 257 262 262 256 247 251 246 236 230
243 278 330 313 311 300 261 181 194 189 135 120 129 133 138 146 154 155 152 153 146 143 133 128 114 102 107 95 81 67 45 31 334 334 312 286 276 261 262 254 237 240 241 246 225 228 239 237 241
253 282 304 308 308 271 247 166 129 46 74 102 129 140 144 152 155 153 148 144 138 135 126 112 109 109 105 100 105 97 59 20 349 342 317 305 279 268 265 257 263 261 257 261 265 260 256 260 257
243 276 318 333 309 140 160 135 108 88 91 113 128 141 146 146 148 146 143 142 144 136 123 114 110 113 113 107 86 70 51 6 3 334 341 318 298 295 288 271 263 267 264 252 256 262 266 265 254
293 261 204 146 110 134 140 126 124 97 109 122 132 140 142 143 147 146 150 150 145 137 128 122 117 114 110 105 90 67 50 37 357 353 351 329 314 313 294 270 262 265 267 284 283 277 271 267 267
242 216 179 151 151 147 183 147 108 116 132 134 134 131 136 146 153 155 151 150 146 141 134 130 128 118 109 99 85 74 49 29 14 11 356 342 326 328 302 278 261 270 271 258 258 265 262 260 261
223 229 202 126 170 166 248 170 124 147 159 151 146 145 150 153 155 145 145 147 144 143 137 136 126 118 109 90 69 62 36 25 13 1 358 358 346 329 302 291 282 298 275 266 266 264 273 272 272
213 242 242 129 160 200 251 114 137 166 180 169 165 163 161 157 156 154 157 158 152 149 143 137 123 126 118 111 102 76 59 23 3 359 3 357 340 332 303 298 317 285 278 280 282 287 289 287 282
313 299 286 178 136 214 227 165 152 172 195 181 174 172 169 172 167 165 166 160 159 160 158 155 156 151 166 162 159 201 17 1 358 3 15 348 338 338 319 293 302 291 284 281 283 291 278 285 282
301 291 291 82 115 228 201 168 161 176 189 181 179 175 180 179 163 165 171 176 176 179 181 186 194 179 201 215 265 307 336 339 343 350 10 343 342 341 321 314 313 293 291 298 292 285 278 273 284
266 271 246 134 143 232 166 150 156 180 193 189 184 183 186 178 169 173 182 190 196 195 201 204 209 205 216 207 255 300 320 317 332 333 343 333 336 328 318 334 305 308 302 280 282 278 288 290 285
269 295 305 168 157 184 198 167 167 170 182 187 189 190 192 189 185 187 196 203 207 211 213 218 218 216 221 219 235 245 251 261 277 322 321 335 323 318 323 315 312 315 295 297 298 286 274 287 285
301 19 234 183 212 161 251 177 143 168 178 188 196 197 197 195 196 199 205 211 216 219 220 221 222 223 219 218 244 274 298 309 324 311 321 313 296 305 307 305 305 304 300 306 285 295 294 278 281
42 106 191 209 235 203 206 283 123 168 180 188 193 195 195 196 202 208 214 218 223 225 225 223 220 218 213 221 232 253 276 295 297 301 296 290 291 289 297 303 304 299 293 310 309 303 291 285 281
142 172 189 217 232 202 52 297 127 153 164 171 182 190 194 197 205 212 219 221 225 224 222 220 211 210 207 216 232 250 275 283 291 291 298 289 287 282 286 290 295 289 301 305 294 295 279 282 292
218 260 250 222 218 77 103 275 95 133 157 167 174 182 191 199 207 212 216 216 215 215 213 207 202 205 207 218 232 244 257 265 263 273 280 285 294 294 306 296 287 290 293 289 289 283 288 283 280
242 297 329 331 349 65 164 289 108 150 166 181 187 182 188 198 204 209 208 205 204 203 198 198 200 206 211 222 233 243 251 259 266 266 285 286 290 301 314 285 275 276 278 280 280 280 272 272 277
234 287 347 295 287 287 90 75 158 173 190 193 193 192 195 199 199 198 192 191 190 191 192 197 200 211 219 231 234 242 249 262 277 276 261 268 275 281 280 279 276 274 273 274 274 272 278 275 271
318 301 258 297 322 318 78 182 72 177 196 194 197 198 195 190 191 187 185 185 186 187 189 199 209 221 231 237 243 248 251 256 259 267 276 279 280 278 277 276 276 275 273 268 266 270 262 264 265
184 208 268 292 315 312 329 29 89 177 197 200 201 201 193 191 187 181 181 181 185 190 194 204 214 226 237 247 249 259 263 265 263 261 264 266 272 276 272 273 276 276 275 272 268 269 274 266 266
263 264 247 283 294 280 299 346 120 175 199 214 216 198 193 190 184 180 179 182 193 202 207 212 223 233 242 251 255 257 262 266 268 268 267 267 268 270 273 275 276 276 275 274 271 269 270 268 266